User: anonymous   Login
Location: Unspecified
(0.0000°N, 0.0000°E)
Time: 09:41:19
(UTC+00:00)
Language:

STRAND 1 - Orbit

View from above orbital plane
View from above orbital plane
View from above satellite
View from above satellite

Ground track
Ground track

The orbit data is extracted from the following two-line orbital elements,

1 39090U 13009E   19082.77237682 +.00000020 +00000-0 +22316-4 0  9996
2 39090 098.4972 290.1428 0009064 180.0948 180.0237 14.35074972317900
Epoch (UTC): 23 March 2019 18:32:13
Eccentricity: 0.0009064
inclination: 98.4972°
perigee height: 768 km
apogee height: 781 km
right ascension of ascending node: 290.1428°
argument of perigee: 180.0948°
revolutions per day: 14.35074972
mean anomaly at epoch: 180.0237°
orbit number at epoch: 31790

The dashed part of the orbit path shows where the satellite is in the earth's shadow,  

DLR